Weather in Peregrebnoye

Russia / Khanty-Mansi Autonomous Okrug — Yugra     62°58′02″N   65°05′08″E
temp.,
°C
wind,
m/s
gust,
m/s
humid.,
%
clouds,
%
prec.,
mm/h
press.,
hPa
HPBL,
m
9 march, tue
tue923:00−29ne23958 0.0 100619
02:00−30ne22962 0.0 100619
05:00−30ne229621 0.0 100719
08:00−28nne239593 0.0 100746
11:00−25nne339385 0.0 1007204
14:00−22n339294 0.0 1008256
17:00−24n349590 0.0 100983
20:00−29nne349639 0.0 101025
10 march, wed
wed1023:00−30n239758 0.0 101219
02:00−31n239882 0.0 101319
05:00−33n2210079 0.0 101319
08:00−33nne1110080 0.0 101419
11:00−28w119254 0.0 1014160
14:00−25wsw128864 0.0 1013237
17:00−26sw009376 0.0 101220
20:00−30se11995 0.0 101319
11 march, thu
thu1123:00−31se11994 0.0 101319
02:00−32ene11998 0.0 101319
05:00−31ne229541 0.0 101319
08:00−31ene229491 0.0 101419
11:00−26n228965 0.0 1014194
14:00−24nnw238932 0.0 1014261
17:00−25n129132 0.0 101353
20:00−30wsw11980 0.0 101319
12 march, fri
fri1223:00−30ssw23923 0.0 101219
02:00−28s349394 0.0 101045
05:00−29s459671 0.0 100866
08:00−26s589478 0.0 1007178
11:00−20ssw699387 0.0 1005370
14:00−14sw6108896 0.0 1004715
17:00−12sw5118998 0.1 1002608
20:00−11sw51192100 0.1 1002400
13 march, sat
sat1323:00−13wsw4789100 0.1 1003145
02:00−13wsw4589100 0.0 100391
05:00−13wsw4888100 0.0 1004145
08:00−12w5118682 0.0 1005224
11:00−6w8147765 0.0 1007653
14:00−4w8147845 0.0 1009744
17:00−4w7157723 0.0 1010493
20:00−7w7157860 0.0 1012300